Home   Weather   Toulouse   Past weeks

Flag for France Past Weather in Toulouse, Midi-Pyrénées, France — Yesterday and Last 2 Weeks

Now
39 °F

Passing clouds.


Feels Like: 36 °F
Forecast: 33 / 50 °F
Wind: 5 mph from Southeast

Location: Toulouse / Blagnac

Current Time: Jan 20, 2017 at 9:21:35 pm

Latest Report: Jan 20, 2017 at 8:30 pm


Visibility: N/A

Pressure: 30.24 "Hg

Humidity: 75%

Dew Point: 32 °F

Location of ToulouseLocation

Past Weather in Toulouse — Graph

°F

Toulouse Temperature Yesterday

Maximum temperature yesterday: 36 °F (at 3:00 pm)
Minimum temperature yesterday: 19 °F (at 8:30 am)
Average temperature yesterday: 27 °F

High & Low Weather Summary for the Past Weeks

 TemperatureHumidityPressure
High54 °F (Jan 12, 7:00 pm)100% (Jan 9, 4:00 am)30.54 "Hg (Jan 9, 4:00 am)
Low19 °F (Jan 19, 8:30 am)45% (Jan 17, 4:30 pm)29.95 "Hg (Jan 10, 8:30 am)
Average38 °F79%30.27 "Hg
* Reported Jan 5 8:00 pm — Jan 20 8:00 pm, Toulouse, Weather by CustomWeather, © 2017

Note: Actual official high and low records may vary slightly from our data, if they occured in-between our weather recording intervals... More about our weather records

Advertising

Toulouse Weather History for the Previous 24 Hours

Scroll right to see more
 ConditionsComfort  
Time TempWeatherWind HumidityBarometerVisibility
8:00 pm
Fri, Jan 20
39 °FPassing clouds.6 mph75%30.24 "HgN/A
7:30 pm39 °FPassing clouds.3 mph70%30.24 "HgN/A
7:00 pm41 °FPassing clouds.3 mph70%30.21 "HgN/A
6:30 pm43 °FOvercast.6 mph66%30.21 "HgN/A
6:00 pm45 °FMostly cloudy.7 mph61%30.21 "HgN/A
5:30 pm46 °FPartly sunny.7 mph57%30.21 "HgN/A
5:00 pm46 °FScattered clouds.8 mph57%30.21 "HgN/A
4:30 pm48 °FBroken clouds.10 mph54%30.21 "HgN/A
4:00 pm48 °FScattered clouds.8 mph54%30.21 "HgN/A
3:30 pm48 °FPassing clouds.8 mph54%30.21 "HgN/A
3:00 pm48 °FPassing clouds.10 mph50%30.21 "HgN/A
2:30 pm48 °FScattered clouds.10 mph50%30.21 "HgN/A
2:00 pm45 °FPassing clouds.2 mph57%30.24 "HgN/A
1:30 pm43 °FScattered clouds.1 mph57%30.24 "HgN/A
1:00 pm39 °FPassing clouds.5 mph65%30.24 "HgN/A
12:30 pm36 °FClear.5 mph75%30.27 "Hg6 mi
12:00 pm34 °FPassing clouds.2 mph75%30.27 "Hg5 mi
11:30 am34 °FClear.5 mph75%30.27 "Hg4 mi
11:00 am32 °FClear.3 mph75%30.27 "Hg4 mi
10:30 am30 °FClear.6 mph80%30.27 "Hg4 mi
10:00 am28 °FClear.5 mph86%30.27 "Hg4 mi
9:30 am27 °FIce fog.3 mph86%30.27 "Hg3 mi
9:00 am25 °FIce fog.5 mph86%30.27 "Hg3 mi
8:30 am23 °FIce fog.3 mph86%30.27 "Hg3 mi
8:00 am25 °FIce fog.3 mph86%30.27 "Hg3 mi
7:30 am25 °FIce fog.2 mph86%30.27 "Hg3 mi
7:00 am25 °FIce fog.6 mph86%30.27 "Hg3 mi
6:30 am23 °FIce fog.3 mph93%30.27 "Hg3 mi
6:00 am23 °FIce fog.1 mph86%30.27 "Hg3 mi
5:30 am23 °FIce fog.2 mph86%30.27 "Hg3 mi
5:00 am23 °FIce fog.No wind86%30.27 "Hg3 mi
4:30 am25 °FIce fog.2 mph80%30.27 "Hg3 mi
4:00 am25 °FIce fog.No wind93%30.27 "Hg2 mi
3:30 am25 °FIce fog.No wind86%30.30 "Hg2 mi
3:00 am25 °FIce fog.3 mph86%30.30 "Hg3 mi
2:30 am25 °FIce fog.No wind80%30.30 "Hg3 mi
2:00 am25 °FClear.No wind80%30.30 "Hg4 mi
1:30 am25 °FClear.No wind80%30.30 "Hg4 mi
1:00 am27 °FClear.No wind74%30.30 "Hg4 mi
12:30 am25 °FClear.No wind80%30.30 "Hg4 mi
12:00 am25 °FClear.No wind80%30.30 "Hg4 mi
11:30 pm
Thu, Jan 19
27 °FClear.No wind74%30.33 "Hg4 mi
11:00 pm27 °FClear.No wind74%30.33 "Hg4 mi
10:30 pm27 °FClear.1 mph74%30.33 "Hg4 mi
10:00 pm28 °FClear.2 mph69%30.33 "Hg4 mi
9:30 pm28 °FClear.1 mph69%30.33 "Hg4 mi
9:00 pm30 °FClear.3 mph64%30.33 "Hg5 mi
Weather by CustomWeather, © 2017

See weather overviewHow to use our weather pages